Change the Weather History Date:

Sunday, June 17, 2012

  Actual Average Record
Temperature  
Mean Temperature 69 °F 67 °F  
Max Temperature 83 °F 80 °F 104 °F (1961)
Min Temperature 55 °F 54 °F 43 °F (1981)
Degree Days  
Heating Degree Days 0 2  
Month to date heating degree days 66 43  
Since 1 June heating degree days 66 43  
Since 1 July heating degree days 5743 5952  
Cooling Degree Days 4 4  
Month to date cooling degree days 25 46  
Year to date cooling degree days 54 83  
Since 1 June cooling degree days 25 46  
Growing Degree Days 20 (Base 50)    
Moisture  
Dew Point 42 °F    
Average Humidity 49    
Maximum Humidity 77    
Minimum Humidity 20    
Precipitation  
Precipitation 0.00 in 0.02 in 0.67 in (1965)
Month to date precipitation 0.63 0.39  
Year to date precipitation 3.27 3.85  
Sea Level Pressure  
Sea Level Pressure 29.71 in    
Wind  
Wind Speed 13 mph (West)    
Max Wind Speed 26 mph    
Max Gust Speed 39 mph    
Visibility 10 miles    
Events      
T = Trace of Precipitation, MM = Missing Value Source: NWS Daily Summary

Daily Weather History Graph

Daily Weather History Graph

Search for Another Location

Airport or City:

Trip Planner

Search our weather history database for the weather conditions in past years. The results will help you decide how hot, cold, wet, or windy it might be!

Date:

Astronomy

Jun. 17, 2012 Rise Set
Actual Time 5:01 AM PDT 8:57 PM PDT
Civil Twilight 4:20 AM PDT 9:37 PM PDT
Nautical Twilight 3:25 AM PDT 10:33 PM PDT
Astronomical Twilight 1:59 AM PDT 11:59 PM PDT
Moon 3:37 AM PDT (6/17) 7:27 PM PDT (6/17)
Length of Visible Light 17h 16m
Length of Day
15h 56m
Waning Crescent, 3% of the Moon is Illuminated
Jun 17
Waning Crescent
Jun 19
New
Jun 26
First Quarter
Jul 3
Full
Jul 10
Last Quarter

Hourly Weather History & Observations

Time (PDT) Temp. Dew Point Humidity Pressure Visibility Wind Dir Wind Speed Gust Speed Precip Events Conditions
12:53 AM 68.0 °F 50.0 °F 52% 29.78 in 10.0 mi West 5.8 mph - N/A   Clear
1:53 AM 66.0 °F 50.0 °F 56% 29.78 in 10.0 mi SW 4.6 mph - N/A   Clear
2:53 AM 59.0 °F 50.0 °F 72% 29.77 in 10.0 mi SSW 9.2 mph - N/A   Clear
3:53 AM 57.9 °F 50.0 °F 75% 29.75 in 10.0 mi SSW 10.4 mph - N/A   Clear
4:53 AM 57.9 °F 50.0 °F 75% 29.74 in 10.0 mi SSW 9.2 mph - N/A   Clear
5:53 AM 60.1 °F 50.0 °F 69% 29.75 in 10.0 mi SW 5.8 mph - N/A   Clear
7:53 AM 71.1 °F 46.9 °F 42% 29.74 in 10.0 mi SW 11.5 mph - N/A   Clear
8:53 AM 73.9 °F 41.0 °F 30% 29.73 in 10.0 mi West 8.1 mph - N/A   Clear
9:53 AM 75.9 °F 39.0 °F 26% 29.72 in 10.0 mi West 12.7 mph 18.4 mph N/A   Clear
10:53 AM 78.1 °F 39.0 °F 25% 29.71 in 10.0 mi WSW 16.1 mph 21.9 mph N/A   Clear
11:53 AM 79.0 °F 39.0 °F 24% 29.70 in 10.0 mi SW 18.4 mph 24.2 mph N/A   Partly Cloudy
12:53 PM 81.0 °F 37.0 °F 21% 29.68 in 10.0 mi WNW 9.2 mph 29.9 mph N/A   Clear
1:53 PM 82.0 °F 37.0 °F 20% 29.67 in 10.0 mi WNW 13.8 mph 23.0 mph N/A   Partly Cloudy
2:53 PM 82.0 °F 37.9 °F 21% 29.67 in 10.0 mi West 17.3 mph 27.6 mph N/A   Partly Cloudy
3:53 PM 82.0 °F 37.0 °F 20% 29.67 in 10.0 mi WNW 17.3 mph 27.6 mph N/A   Clear
4:53 PM 81.0 °F 37.0 °F 21% 29.66 in 10.0 mi West 16.1 mph 25.3 mph N/A   Clear
5:53 PM 78.1 °F 37.9 °F 24% 29.66 in 10.0 mi West 18.4 mph 26.5 mph N/A   Partly Cloudy
6:53 PM 75.0 °F 37.9 °F 26% 29.65 in 10.0 mi West 17.3 mph 26.5 mph N/A   Clear
7:53 PM 70.0 °F 39.9 °F 33% 29.67 in 10.0 mi NW 23.0 mph - N/A   Clear
8:53 PM 66.0 °F 37.9 °F 36% 29.68 in 10.0 mi NW 16.1 mph - N/A   Clear
9:53 PM 63.0 °F 37.0 °F 38% 29.68 in 10.0 mi West 16.1 mph 26.5 mph N/A   Clear
10:53 PM 61.0 °F 37.9 °F 42% 29.68 in 10.0 mi West 12.7 mph - N/A   Clear
11:53 PM 59.0 °F 39.9 °F 49% 29.69 in 10.0 mi WSW 10.4 mph - N/A   Clear